Location: Balcones
(3.7244°N, 75.6017°W)
Time: 06:04:36
(UTC+00:00)

Cosmos 1842 - Pass Details

Date: 13 December 2025
Orbit: 413 x 424 km, 82.5° (Epoch: 24 January)

Event Time Altitude Azimuth Distance (km) Brightness Sun altitude
Rises 23:17:47 0° 153° (SSE) 2,394 6.6 -6.3°
Reaches altitude 10° 23:20:32 10° 128° (SE) 1,531 5.3 -6.9°
Maximum altitude 23:22:26 14° 93° (E) 1,290 4.7 -7.3°
Drops below altitude 10° 23:24:20 10° 58° (ENE) 1,536 4.9 -7.8°
Enters shadow 23:24:27 10° 56° (ENE) 1,567 5.0 -7.8°
